Weather in Valentin

Russia / Primorsky Krai     43°07′17″N   134°18′21″E
temp.,
°C
wind,
m/s
gust,
m/s
humid.,
%
clouds,
%
prec.,
mm/h
press.,
hPa
HPBL,
m
8 december, wed
wed801:00+1n22480 0.0 1031200
04:00+1nnw22440 0.0 1030156
07:00+2nw11380 0.0 1030142
10:00+3nne01380 0.0 1031182
13:00+3sse11420 0.0 1031232
16:00+4sw22500 0.0 1030145
19:00+4w12510 0.0 1031118
22:00+4nw11540 0.0 1032132
9 december, thu
thu901:00+4nw11560 0.0 1032137
04:00+3w11560 0.0 1031179
07:00+3wsw22550 0.0 1031242
10:00+4w12510 0.0 1031192
13:00+5sw34500 0.0 1030240
16:00+6sw55710 0.0 1028179
19:00+5wsw357422 0.0 1028177
22:00+5w3575100 0.0 1028182
10 december, fri
fri1001:00+5w3580100 0.0 1027187
04:00+5wsw4584100 0.0 1026176
07:00+5wsw3483100 0.0 1025121
10:00+6sw3481100 0.0 1025115
13:00+7sw4578100 0.0 1024162
16:00+7sw3382100 0.0 102245
19:00+6wsw1189100 0.3 102322
22:00+6w1290100 0.3 102224
11 december, sat
sat1101:00+6nw228625 0.0 102125
04:00+5nnw45801 0.0 1022126
07:00+4nnw44700 0.0 1023123
10:00+4nw33664 0.0 1025147
13:00+5nw2260100 0.0 1024254
16:00+5n1163100 0.0 1023167
19:00+5wnw1166100 0.0 1023158
22:00+4n2168100 0.0 1021126
12 december, sun
sun1201:00+3nnw2269100 0.0 1020139
04:00+3nnw2266100 0.0 1018143
07:00+3nnw1161100 0.0 1017137
10:00+3n2258100 0.0 1016193
13:00+4n1152100 0.1 1014363
16:00+4nnw4451100 0.1 1012878
19:00+1nnw6955100 0.0 1012923
22:00−3nw6105199 0.0 10131127